Regional Weather Roundup
Issued by NWS

Home | Current Version | Previous Version | Graphics & Text | Print | Product List | Glossary On
Versions: 1 2 3 4 5 6 7 8 9 10 11 12 13 14 15 16 17 18 19 20 21 22 23 24 25 26 27 28 29 30 31 32 33 34 35 36 37 38 39 40 41 42 43 44 45 46 47 48 49 50
000
ASUS45 KTFX 201204
RWRMT
MONTANA HOURLY WEATHER ROUNDUP
NATIONAL WEATHER SERVICE GREAT FALLS MT
604 AM MDT WED AUG 20 2014

NOTE: "FAIR" INDICATES FEW OR NO CLOUDS BELOW 12000 FEET WITH NO
SIGNIFICANT WEATHER AND/OR OBSTRUCTIONS TO VISIBILITY.

* THESE STATIONS ARE NOT UNDER NWS QUALITY CONTROL. THEY DO NOT
   REPORT WEATHER SUCH AS PRECIPITATION OR FOG.

MTZ001>007-043-201300-
WEST OF THE DIVIDE
CITY           SKY/WX    TMP DP  RH WIND       PRES   REMARKS
KALISPELL      LGT RAIN  57  55  93 VRB5      29.83R
MISSOULA       CLEAR     55  52  90 CALM      29.85R
BUTTE          MOCLDY    48  43  83 SE3       29.94S
MULLAN PASS    PTCLDY    54  46  74 VRB5      29.93R
* ESSEX        N/A       52  51  96 N/A        N/A
* LINCOLN      N/A       47  42  83 NE4        N/A
* LOOKOUT PASS N/A       50  50 100 S2         N/A
* POLSON       N/A       57  55  93 NE3        N/A
* RONAN APT    MOCLDY    54  52  93 NW5        N/A
* SEELEY LAKE  N/A       52  49  90 N3G9       N/A
* THOMP F APT  MOCLDY    49  44  83 N2G9       N/A
* YAAK HILL    N/A       56  53  90 SE1        N/A
$$

MTZ008-052>055-201300-
SOUTHWEST MONTANA
CITY           SKY/WX    TMP DP  RH WIND       PRES   REMARKS
BOZEMAN        MOCLDY    50  46  86 SE7       29.88R
DILLON         CLOUDY    54  46  74 SW7       29.92R
W YELLOWSTONE  FOG       45  45 100 CALM      30.03R VSB M1/4
* THREE FORKS  CLOUDY    57  55  93 N/A        N/A
* BOULDER HILL N/A       58  40  51 S1G8       N/A
* RAYNOLDS PAS N/A       44  29  56 S8         N/A
* WHITEHALL    N/A       55  48  77 NW5G11     N/A
* WISE RIVER   N/A       44  41  89 S3         N/A
$$

MTZ009>010-012-014-046-048-049-054-201300-
EAST SLOPES AND CENTRAL MONTANA
CITY           SKY/WX    TMP DP  RH WIND       PRES   REMARKS
CUT BANK       CLOUDY    54  50  86 CALM      29.80S
GREAT FALLS    PTCLDY    57  50  78 CALM      29.79S
HELENA         CLOUDY    63  48  58 CALM      29.83R
MALMSTROM AFB  MOCLDY    55  48  77 SW6       29.81R
* CONRAD       PTCLDY    52  52 100 N/A        N/A
* DEARBORN     N/A       59  46  62 E1         N/A
* EAST GLACIER N/A       54  45  72 E1G6       N/A
* MONARCH      N/A       54  40  59 NE1        N/A
* PENDROY      N/A       54  51  90 SW4        N/A
* ROGERS PASS  N/A       54  41  62 W2         N/A
* SAINT MARY   N/A       53  45  74 E2G7       N/A
* SWEET GRASS  N/A       57  55  93 NW9        N/A
$$

MTZ011-013-016-021-035-040-045-047-050-051-201300-
NORTH CENTRAL MONTANA
CITY           SKY/WX    TMP DP  RH WIND       PRES   REMARKS
HAVRE          MOCLDY    55  54  96 W8        29.74R
LEWISTOWN      CLOUDY    64  46  52 W8        29.82R
* CHESTER      N/A       56  53  90 NW2        N/A
* DENTON       N/A       58  42  55 SW4        N/A
* GEYSER       N/A       56  46  69 SW6        N/A
* JUDITH GAP   N/A       61  47  60 NW8        N/A
* LOMA         N/A       58  50  75 SW2        N/A
$$

MTZ017>020-022>027-061-062-201300-
NORTHEAST MONTANA
CITY           SKY/WX    TMP DP  RH WIND       PRES   REMARKS
GLASGOW        MOCLDY    64  54  70 NW12      29.62R
GLENDIVE       CLOUDY    68  61  78 S10       29.65R
JORDAN         CLOUDY    64  52  65 W10       29.65R
SIDNEY         CLOUDY    68  61  78 S6        29.62S
WOLF POINT     CLOUDY    64  52  65 SE5       29.60R
* BEAVER HILL  N/A       69  61  76 SE12       N/A
* CIRCLE       N/A       65  53  65 N/A        N/A
* LINDSAY DVD  N/A       67  57  70 NW5        N/A
* SACO         N/A       63  58  84 SW6        N/A
$$

MTZ028>042-056>058-201300-
SOUTHCENTRAL AND SOUTHEAST MONTANA
CITY           SKY/WX    TMP DP  RH WIND       PRES   REMARKS
BAKER          CLOUDY    68  61  78 VRB3      29.69R
BILLINGS       CLOUDY    68  45  44 SW10      29.78R
LIVINGSTON     MOCLDY    64  43  47 SW13      29.85R
MILES CITY     CLOUDY    73  45  37 SW10      29.66R
* LAUREL APT   CLOUDY    64  45  50 N/A        N/A
* ROUNDUP APT  CLOUDY    66  41  40 N/A        N/A
* ALZADA       N/A       70  56  61 NE6        N/A
* HYSHAM       N/A       67  42  40 W4G9       N/A
* LAME DEER    N/A       64  47  54 W12        N/A
* REED POINT   N/A       63  47  56 N/A        N/A
* ROSCOE HILL  N/A       64  38  38 SW7        N/A
$$

REGIONAL REPORTS...DAKOTAS
CITY           SKY/WX    TMP DP  RH WIND       PRES   REMARKS
WILLISTON      MOCLDY    72  61  68 SE6       29.62R
DICKINSON      MOCLDY    64  61  90 S10       29.66S
BEACH          N/A       64  63  97 SE5       29.67R
CROSBY         TSTM      66  66 100 SW8       29.63R
TIOGA          CLEAR     59  59 100 SE6       29.68S
WATFORD CITY   CLEAR     63  59  87 NE5       29.62R
BISMARCK       PTCLDY    63  61  93 E9        29.72R
GRAND FORKS    PTCLDY    63  61  93 SE6       29.77R
FARGO          PTCLDY    64  63  97 SE7       29.78R
BUFFALO SD     CLOUDY    70  61  73 S8        29.64R
RAPID CITY     CLOUDY    64  57  78 CALM      29.73R
$$

REGIONAL REPORTS...WYOMING/IDAHO/WASHINGTON
CITY           SKY/WX    TMP DP  RH WIND       PRES   REMARKS
GILLETTE       PTCLDY    66  48  52 SW15      29.76R
SHERIDAN       CLOUDY    68  46  45 W7        29.78R
CODY           CLOUDY    64  43  47 SW12      29.86S
YELLOWSTONE LA MOCLDY    37  37 100 NW3       30.10R
SALMON         CLEAR     52  50  93 CALM      29.90R
MULLAN PASS    PTCLDY    54  46  74 VRB5      29.93S
SAND POINT     PTCLDY    55  55 100 N3        29.76S
SPOKANE        FAIR      63  50  63 SW15      29.75R

$$



USA.gov is the U.S. government's official web portal to all federal, state and local government web resources and services.